[[{"header":{"parameterUnit":"m.s-1","parameterCategory":1,"la1":30.2991,"la2":30.254,"lo1":-89.0895,"lo2":-89.0444,"dy":0.0017,"dx":0.0017,"nx":28,"ny":28,"refTime":"2025-03-25T03:00:00:Z","depth":0,"parameterNumber":2,"parameterNumberName":"U-component_of_WINDS"},"data":[0,0,0,0,0,0,0,0,0,0,0,0,0,0,0,0,0,0,0,0,0,0,0,0,0,0,0,0,0,0,0,0,0,0,0,0,0,0,0,0,0,0,0,0,0,0,0,0,0,0,0,0,0,0,0,0,0,0,-0.9328,-0.9328,0,-0.9296,-0.9295,-0.9295,-0.9211,-0.921,-0.9208,-0.9206,-0.9175,-0.9176,-0.9177,0,0,0,0,0,0,0,0,0,0,0,0,0,-0.9322,-0.9322,-0.9328,-0.9328,-0.9328,-0.9296,-0.9295,-0.9295,-0.9212,-0.921,-0.9207,-0.9205,-0.9175,-0.9176,-0.9177,0,0,0,0,0,0,0,0,0,0,0,0,0,-0.931,-0.9322,-0.9328,-0.9282,-0.9278,-0.9296,-0.9295,-0.9295,-0.9212,-0.921,-0.9207,-0.9204,-0.9175,-0.9176,-0.9177,-0.9238,0,0,-0.9181,-0.9182,0,0,0,0,0,0,0,0,-0.9311,-0.9311,-0.9289,-0.9285,-0.928,-0.9255,-0.9281,-0.9276,-0.9213,-0.9237,-0.9206,-0.9203,-0.9204,-0.9203,-0.9203,-0.9237,-0.9235,-0.9181,-0.9182,-0.9182,-0.9183,0,0,0,0,0,0,0,-0.9312,-0.9312,-0.9315,-0.9289,-0.9284,-0.9264,-0.9259,-0.928,-0.9236,-0.9235,-0.9229,-0.9226,-0.9201,-0.9202,-0.9201,-0.9235,-0.9181,-0.9182,-0.9183,-0.9183,-0.9319,-0.9322,0,0,0,0,0,0,-0.9319,-0.9313,-0.9316,-0.9314,-0.9289,-0.9266,-0.9261,-0.9266,-0.9236,-0.9228,-0.9228,-0.9222,-0.9201,-0.92,-0.92,-0.927,-0.9182,-0.9184,-0.9184,-0.9316,-0.9319,-0.9323,0,0,0,0,0,0,-0.9319,-0.932,-0.9318,-0.9312,-0.931,-0.9269,-0.9275,-0.9267,-0.9267,-0.923,-0.9223,-0.9237,-0.9199,-0.9198,-0.9229,-0.9268,-0.9184,-0.9185,-0.9313,-0.9317,-0.9321,-0.9412,0,0,0,0,0,0,-0.9319,-0.9321,-0.9343,-0.9313,-0.9311,-0.9347,-0.9277,-0.9268,-0.9269,-0.9261,-0.9236,-0.923,-0.9197,-0.9228,-0.9231,-0.9268,-0.9186,-0.9309,-0.9315,-0.932,-0.9405,-0.9418,-0.943,0,0,0,0,0,-0.932,-0.937,-0.9344,-0.9345,-0.9337,-0.935,-0.9348,-0.9309,-0.9272,-0.9295,-0.9272,-0.923,-0.9263,-0.9232,-0.9234,-0.9273,-0.9306,-0.9313,-0.9319,-0.9399,-0.9416,-0.943,0,0,0,0,0,0,-0.9406,-0.9365,-0.9336,-0.9379,-0.9368,-0.9336,-0.9363,-0.9327,-0.9327,-0.932,-0.9271,-0.9266,-0.9305,-0.9291,-0.9257,-0.9331,-0.9278,-0.9285,-0.9338,-0.9354,-0.9366,-0.9369,-0.9187,0,0,0,0,0,-0.943,-0.9443,-0.9406,-0.9447,-0.9443,-0.9404,-0.9408,-0.9378,-0.9366,-0.9361,-0.934,-0.933,-0.9338,-0.9345,-0.935,-0.9402,-0.9396,-0.943,-0.9442,-0.9453,-0.946,-0.9488,-0.9503,-0.9344,-0.9344,-0.9343,0,0,-0.948,-0.9459,-0.947,-0.9464,-0.9452,-0.9468,-0.9401,-0.942,-0.9431,-0.9364,-0.9393,-0.9377,-0.9363,-0.9405,-0.9423,-0.9396,-0.9503,-0.9461,-0.9469,-0.9471,-0.9496,-0.9511,-0.9525,-0.9348,-0.9347,-0.9346,0,0,-0.9579,-0.9563,-0.9596,-0.9586,-0.9569,-0.9543,-0.9551,-0.9524,-0.9511,-0.9538,-0.9489,-0.9501,-0.9516,-0.9509,-0.9507,-0.9603,-0.9566,-0.9606,-0.9672,-0.97,-0.9712,-0.9723,-0.976,-0.9773,-0.9613,-0.9614,-0.9614,0,-0.9643,-0.9663,-0.9618,-0.964,-0.9639,-0.9579,-0.9613,-0.9605,-0.9591,-0.9593,-0.9562,-0.958,-0.9566,-0.9606,-0.963,-0.963,-0.9639,-0.961,-0.9714,-0.9725,-0.9734,-0.9768,-0.9782,-0.9619,-0.9618,-0.9618,-0.9617,0,-0.9744,-0.9759,-0.9787,-0.9775,-0.9777,-0.9805,-0.9765,-0.9774,-0.9743,-0.9721,-0.975,-0.9732,-0.9733,-0.974,-0.9711,-0.9777,-0.976,-0.9723,-0.9669,-0.9755,-0.9786,-0.9799,-0.9626,-0.9624,-0.9623,-0.9621,0,0,-0.9897,-0.9859,-0.9871,-0.9865,-0.9842,-0.9853,-0.9879,-0.9879,-0.9888,-0.988,-0.9902,-0.9915,-0.988,-0.9878,-0.9848,-0.9872,-0.9952,-0.9831,-0.983,-0.9856,-1.0025,-1.0055,-1.0071,-0.9926,-0.9929,-0.993,-1.0027,0,-0.9991,-1.0032,-0.9993,-1.0042,-1.0056,-0.9999,-1.0021,-1.001,-0.999,-0.9999,-0.9977,-0.9988,-0.994,-0.9939,-0.996,-0.9938,-0.9986,-0.993,-0.9947,-0.9949,-0.9955,-1.0087,-1.0118,-1.021,-1.0039,-1.0041,-1.0042,0,-1.0107,-1.0105,-1.0155,-1.013,-1.0134,-1.0155,-1.0153,-1.0162,-1.0149,-1.0132,-1.0131,-1.0093,-1.0118,-1.0064,-1.0098,-1.0061,-1.0066,-1.0056,-1.0059,-1.006,-1.0002,-1.0094,-1.0238,-1.0253,-1.006,-1.0059,-1.0058,0,-1.0216,-1.0225,-1.0257,-1.0254,-1.0224,-1.0241,-1.0229,-1.0213,-1.0216,-1.0215,-1.0216,-1.0218,-1.0219,-1.0221,-1.0186,-1.015,-1.0225,-1.0168,-1.0214,-1.0215,-1.0234,-1.0233,-1.0383,-1.0234,-1.0234,-1.0233,-1.0233,0,-1.0326,-1.036,-1.0306,-1.0326,-1.0362,-1.0316,-1.0354,-1.0337,-1.0323,-1.034,-1.029,-1.0307,-1.0258,-1.027,-1.0242,-1.0276,-1.0276,-1.0265,-1.0257,-1.027,-1.0272,-1.0274,-1.0267,-1.0237,-1.0236,-1.0235,-1.0235,0,-1.0455,-1.042,-1.0451,-1.042,-1.0414,-1.0442,-1.0417,-1.0434,-1.041,-1.0432,-1.0434,-1.0397,-1.0409,-1.0373,-1.0379,-1.036,-1.041,-1.0391,-1.0414,-1.0409,-1.0457,-1.0454,-1.0615,-1.0635,-1.0472,-1.0473,-1.0475,0,-1.0529,-1.0553,-1.0526,-1.0533,-1.0524,-1.0536,-1.0539,-1.0495,-1.05,-1.0487,-1.0507,-1.0514,-1.0518,-1.0539,-1.0513,-1.0518,-1.05,-1.0556,-1.05,-1.0513,-1.0503,-1.0503,-1.0506,-1.0568,-1.057,-1.0572,-1.0573,0,-1.0664,-1.0645,-1.0651,-1.0651,-1.0656,-1.0654,-1.0648,-1.0657,-1.061,-1.0619,-1.0629,-1.0632,-1.0638,-1.0647,-1.0646,-1.0635,-1.0598,-1.0591,-1.0602,-1.0616,-1.0629,-1.0625,-1.0448,-1.0588,-1.0586,-1.0585,-1.0584,-1.0584,-1.0768,-1.0788,-1.0772,-1.078,-1.0771,-1.0768,-1.0783,-1.0761,-1.0769,-1.077,-1.0744,-1.076,-1.0747,-1.0742,-1.0735,-1.0749,-1.0723,-1.0738,-1.0743,-1.0748,-1.0757,-1.0626,-1.0748,-1.0747,-1.0747,-1.0747,-1.0746,0,-1.0903,-1.0889,-1.0897,-1.0891,-1.0898,-1.086,-1.0853,-1.0861,-1.0876,-1.0867,-1.0871,-1.0885,-1.0893,-1.0868,-1.0872,-1.0888,-1.0871,-1.0891,-1.089,-1.0889,-1.0779,-1.0769,-1.0905,-1.0905,-1.0905,-1.0905,-1.0905,-1.0905,-1.0973,-1.1005,-1.0985,-1.1012,-1.0999,-1.1014,-1.1013,-1.101,-1.1002,-1.1019,-1.1026,-1.1009,-1.0993,-1.0997,-1.1003,-1.0995,-1.1,-1.1027,-1.1014,-1.0912,-1.0896,-1.0882,-1.0873,-1.1028,-1.1028,-1.1123,-1.1124,-1.1124]},{"header":{"parameterUnit":"m.s-1","parameterCategory":1,"la1":30.2991,"la2":30.254,"lo1":-89.0895,"lo2":-89.0444,"dy":0.0017,"dx":0.0017,"nx":28,"ny":28,"refTime":"2025-03-25T03:00:00:Z","depth":0,"parameterNumber":3,"parameterNumberName":"V-component_of_WINDS"},"data":[0,0,0,0,0,0,0,0,0,0,0,0,0,0,0,0,0,0,0,0,0,0,0,0,0,0,0,0,0,0,0,0,0,0,0,0,0,0,0,0,0,0,0,0,0,0,0,0,0,0,0,0,0,0,0,0,0,0,0.1583,0.1583,0,0.1593,0.1593,0.1594,0.161,0.161,0.1611,0.1611,0.162,0.162,0.162,0,0,0,0,0,0,0,0,0,0,0,0,0,0.1577,0.1577,0.1583,0.1583,0.1583,0.1593,0.1593,0.1594,0.161,0.161,0.1611,0.1611,0.162,0.162,0.162,0,0,0,0,0,0,0,0,0,0,0,0,0,0.1583,0.1577,0.1583,0.1593,0.1594,0.1593,0.1594,0.1594,0.161,0.161,0.1611,0.1611,0.162,0.162,0.162,0.1611,0,0,0.162,0.162,0,0,0,0,0,0,0,0,0.1582,0.1583,0.1591,0.1592,0.1593,0.1601,0.1595,0.1599,0.161,0.1604,0.1611,0.1611,0.1613,0.1614,0.1615,0.1612,0.1612,0.162,0.162,0.162,0.162,0,0,0,0,0,0,0,0.1582,0.1583,0.1587,0.1591,0.1592,0.1596,0.1598,0.1596,0.1606,0.1604,0.1605,0.1606,0.1614,0.1615,0.1615,0.1612,0.162,0.162,0.162,0.162,0.1602,0.1602,0,0,0,0,0,0,0.158,0.1582,0.1587,0.1587,0.1589,0.1596,0.1598,0.1598,0.1606,0.1608,0.1606,0.1607,0.1615,0.1615,0.1616,0.1605,0.162,0.162,0.162,0.1602,0.1602,0.1601,0,0,0,0,0,0,0.158,0.1581,0.1586,0.1585,0.1586,0.1596,0.1596,0.1598,0.1599,0.1607,0.1609,0.1605,0.1615,0.1616,0.1612,0.1606,0.162,0.162,0.1603,0.1602,0.1602,0.1585,0,0,0,0,0,0,0.158,0.158,0.1577,0.1585,0.1586,0.1583,0.1596,0.1598,0.1599,0.16,0.1607,0.1608,0.1616,0.1612,0.1612,0.1606,0.162,0.1604,0.1603,0.1602,0.1586,0.1584,0.1582,0,0,0,0,0,0.158,0.1572,0.1577,0.1577,0.1582,0.1583,0.1583,0.1592,0.1598,0.1595,0.1601,0.1608,0.1607,0.1612,0.1612,0.1606,0.1604,0.1603,0.1602,0.1587,0.1584,0.1582,0,0,0,0,0,0,0.1562,0.1573,0.1579,0.1573,0.1577,0.1585,0.1581,0.1588,0.159,0.1591,0.1602,0.1603,0.1598,0.1602,0.1607,0.1597,0.1607,0.1606,0.1595,0.1593,0.1591,0.159,0.162,0,0,0,0,0,0.1558,0.1557,0.1567,0.1561,0.1563,0.1572,0.1572,0.1578,0.1582,0.1584,0.1589,0.1593,0.1593,0.1593,0.1594,0.1587,0.1588,0.1583,0.1581,0.1579,0.1578,0.1574,0.1572,0.1598,0.1598,0.1598,0,0,0.1549,0.1554,0.1553,0.1558,0.1561,0.156,0.1573,0.1571,0.1571,0.1584,0.1581,0.1585,0.159,0.1584,0.1582,0.1587,0.1571,0.1577,0.1576,0.1576,0.1573,0.157,0.1568,0.1597,0.1597,0.1598,0,0,0.1531,0.1536,0.1532,0.1535,0.1541,0.1547,0.1546,0.1553,0.1557,0.1554,0.1564,0.1563,0.1564,0.1567,0.1568,0.1553,0.156,0.1553,0.1541,0.1538,0.1535,0.1534,0.1528,0.1526,0.1551,0.1551,0.1551,0,0.1519,0.1518,0.1528,0.1526,0.1528,0.154,0.1536,0.1539,0.1544,0.1545,0.155,0.1551,0.1555,0.1551,0.1547,0.1548,0.1547,0.1552,0.1535,0.1533,0.1532,0.1526,0.1524,0.155,0.1551,0.1551,0.1551,0,0.1503,0.1502,0.1498,0.1504,0.1505,0.1501,0.1511,0.1511,0.1517,0.1523,0.152,0.1525,0.1527,0.1527,0.1533,0.1523,0.1526,0.1533,0.1543,0.1528,0.1523,0.1521,0.1549,0.1549,0.155,0.155,0,0,0.1474,0.1486,0.1484,0.1487,0.1494,0.1494,0.1491,0.1494,0.1493,0.1497,0.1495,0.1495,0.1502,0.1503,0.151,0.1507,0.1494,0.1514,0.1515,0.151,0.1484,0.1478,0.1476,0.1499,0.1499,0.1499,0.1483,0,0.1458,0.1455,0.1464,0.1458,0.1458,0.147,0.1467,0.1472,0.1477,0.1477,0.1483,0.1483,0.1492,0.1493,0.149,0.1496,0.1489,0.1498,0.1497,0.1497,0.1495,0.1473,0.1467,0.1452,0.1481,0.1481,0.1481,0,0.1439,0.1442,0.1436,0.1444,0.1444,0.1442,0.1445,0.1445,0.145,0.1454,0.1457,0.1464,0.1462,0.1472,0.1469,0.1475,0.1475,0.1478,0.1478,0.1478,0.1488,0.1472,0.1448,0.1445,0.1478,0.1478,0.1478,0,0.1419,0.1421,0.1418,0.142,0.1429,0.1427,0.1431,0.1436,0.1437,0.144,0.1441,0.1443,0.1444,0.1446,0.1454,0.146,0.145,0.1461,0.1453,0.1453,0.145,0.145,0.1425,0.1451,0.1451,0.1451,0.1451,0,0.1399,0.1395,0.1409,0.1407,0.1402,0.1413,0.1409,0.1413,0.1418,0.1417,0.1428,0.1427,0.1438,0.1438,0.1445,0.1441,0.1442,0.1445,0.1446,0.1444,0.1443,0.1444,0.1445,0.1451,0.1451,0.1451,0.1451,0,0.1375,0.1384,0.1382,0.1391,0.1393,0.139,0.1397,0.1396,0.1402,0.1401,0.1401,0.1411,0.1411,0.142,0.1422,0.1427,0.1421,0.1424,0.1419,0.142,0.1412,0.1413,0.1386,0.1383,0.1411,0.1411,0.1411,0,0.1362,0.136,0.1369,0.1369,0.1372,0.1373,0.1374,0.1384,0.1385,0.1391,0.1389,0.139,0.1392,0.1392,0.1399,0.1401,0.1405,0.1396,0.1405,0.1403,0.1405,0.1404,0.1404,0.1394,0.1393,0.1393,0.1393,0,0.1338,0.1343,0.1345,0.1348,0.1349,0.1352,0.1355,0.1355,0.1367,0.1367,0.1368,0.1369,0.1372,0.1373,0.1377,0.138,0.1388,0.139,0.1388,0.1385,0.1382,0.1383,0.1413,0.139,0.139,0.1391,0.1391,0.1391,0.1319,0.1317,0.1323,0.1325,0.1329,0.1332,0.1331,0.1337,0.1338,0.1342,0.1348,0.1348,0.1353,0.1359,0.1362,0.1362,0.1366,0.1364,0.1363,0.1363,0.1361,0.1382,0.1362,0.1362,0.1363,0.1363,0.1363,0,0.1295,0.13,0.1301,0.1306,0.1307,0.1315,0.132,0.132,0.132,0.1325,0.1326,0.1327,0.1329,0.1336,0.1339,0.1337,0.1341,0.1337,0.1337,0.1338,0.1357,0.1358,0.1334,0.1334,0.1334,0.1334,0.1334,0.1334,0.1283,0.128,0.1286,0.1285,0.129,0.129,0.1292,0.1295,0.1299,0.1299,0.1301,0.1306,0.1312,0.1315,0.1316,0.1318,0.1319,0.1314,0.1317,0.1334,0.1337,0.1339,0.134,0.1314,0.1314,0.1298,0.1298,0.1298]}]]